Time,TemperatureF,DewpointF,PressureIn,WindDirection,WindDirectionDegrees,WindSpeedMPH,WindSpeedGustMPH,Humidity,HourlyPrecipIn,Conditions,Clouds,dailyrainin,SoftwareType,DateUTC
2013-05-21 00:08:00,62.8,62.0,29.95,East,80,0.0,0.0,96,0.00,,,0.00,weatherlink.com 1.10,2013-05-21 04:08:00,
2013-05-21 00:23:00,62.3,61.0,29.95,East,80,0.0,0.0,96,0.00,,,0.00,weatherlink.com 1.10,2013-05-21 04:23:00,
2013-05-21 00:38:00,61.8,61.0,29.94,East,80,0.0,0.0,96,0.00,,,0.00,weatherlink.com 1.10,2013-05-21 04:38:00,
2013-05-21 00:53:00,61.3,60.0,29.94,East,80,0.0,0.0,96,0.00,,,0.00,weatherlink.com 1.10,2013-05-21 04:53:00,
2013-05-21 01:08:00,61.1,60.0,29.93,East,80,0.0,0.0,96,0.00,,,0.00,weatherlink.com 1.10,2013-05-21 05:08:00,
2013-05-21 01:23:00,60.7,60.0,29.93,East,80,0.0,0.0,96,0.00,,,0.00,weatherlink.com 1.10,2013-05-21 05:23:00,
2013-05-21 01:39:00,60.3,60.0,29.92,East,80,0.0,0.0,97,0.00,,,0.00,weatherlink.com 1.10,2013-05-21 05:39:00,
2013-05-21 01:54:00,60.0,59.0,29.92,East,80,0.0,0.0,97,0.00,,,0.00,weatherlink.com 1.10,2013-05-21 05:54:00,
2013-05-21 02:09:00,59.4,59.0,29.92,East,80,0.0,0.0,97,0.00,,,0.00,weatherlink.com 1.10,2013-05-21 06:09:00,
2013-05-21 02:24:00,59.1,58.0,29.91,East,80,0.0,0.0,97,0.00,,,0.00,weatherlink.com 1.10,2013-05-21 06:24:00,
2013-05-21 02:39:00,58.8,58.0,29.92,East,80,0.0,0.0,97,0.00,,,0.00,weatherlink.com 1.10,2013-05-21 06:39:00,
2013-05-21 02:54:00,58.5,58.0,29.91,East,93,0.0,0.0,97,0.00,,,0.00,weatherlink.com 1.10,2013-05-21 06:54:00,
2013-05-21 03:09:00,58.2,57.0,29.91,East,93,0.0,0.0,97,0.00,,,0.00,weatherlink.com 1.10,2013-05-21 07:09:00,
2013-05-21 03:24:00,58.2,58.0,29.91,East,93,0.0,0.0,98,0.00,,,0.00,weatherlink.com 1.10,2013-05-21 07:24:00,
2013-05-21 03:39:00,57.9,57.0,29.91,East,93,0.0,0.0,98,0.00,,,0.00,weatherlink.com 1.10,2013-05-21 07:39:00,
2013-05-21 03:55:00,57.8,57.0,29.91,East,93,0.0,0.0,98,0.00,,,0.00,weatherlink.com 1.10,2013-05-21 07:55:00,
2013-05-21 04:12:00,57.8,57.0,29.91,East,93,0.0,0.0,98,0.00,,,0.00,weatherlink.com 1.10,2013-05-21 08:12:00,
2013-05-21 04:25:00,57.8,57.0,29.91,East,93,0.0,0.0,98,0.00,,,0.00,weatherlink.com 1.10,2013-05-21 08:25:00,
2013-05-21 04:42:00,57.5,57.0,29.91,East,93,0.0,0.0,98,0.00,,,0.00,weatherlink.com 1.10,2013-05-21 08:42:00,
2013-05-21 04:55:00,57.1,57.0,29.90,East,93,0.0,0.0,98,0.00,,,0.00,weatherlink.com 1.10,2013-05-21 08:55:00,
2013-05-21 05:12:00,56.5,56.0,29.90,East,93,0.0,0.0,98,0.00,,,0.00,weatherlink.com 1.10,2013-05-21 09:12:00,
2013-05-21 05:25:00,56.8,56.0,29.91,East,86,0.0,2.0,98,0.00,,,0.00,weatherlink.com 1.10,2013-05-21 09:25:00,
2013-05-21 05:42:00,57.5,57.0,29.91,NNE,32,0.0,3.0,98,0.00,,,0.00,weatherlink.com 1.10,2013-05-21 09:42:00,
2013-05-21 05:55:00,57.5,57.0,29.92,NNE,32,0.0,0.0,98,0.00,,,0.00,weatherlink.com 1.10,2013-05-21 09:55:00,
2013-05-21 06:12:00,56.9,56.0,29.93,NNE,32,0.0,0.0,98,0.00,,,0.00,weatherlink.com 1.10,2013-05-21 10:12:00,
2013-05-21 06:26:00,58.0,58.0,29.92,NE,37,0.0,4.0,99,0.00,,,0.00,weatherlink.com 1.10,2013-05-21 10:26:00,
2013-05-21 06:42:00,59.0,59.0,29.92,NE,37,0.0,0.0,99,0.00,,,0.00,weatherlink.com 1.10,2013-05-21 10:42:00,
2013-05-21 06:56:00,59.7,60.0,29.92,NE,37,0.0,0.0,99,0.00,,,0.00,weatherlink.com 1.10,2013-05-21 10:56:00,
2013-05-21 07:12:00,60.0,60.0,29.93,NE,37,0.0,0.0,99,0.00,,,0.00,weatherlink.com 1.10,2013-05-21 11:12:00,
2013-05-21 07:26:00,60.9,61.0,29.93,NE,37,0.0,0.0,99,0.00,,,0.00,weatherlink.com 1.10,2013-05-21 11:26:00,
2013-05-21 07:42:00,61.8,62.0,29.92,ENE,59,0.0,1.0,99,0.00,,,0.00,weatherlink.com 1.10,2013-05-21 11:42:00,
2013-05-21 07:56:00,63.4,63.0,29.91,ENE,59,0.0,0.0,98,0.00,,,0.00,weatherlink.com 1.10,2013-05-21 11:56:00,
2013-05-21 08:12:00,65.6,64.0,29.92,ENE,59,0.0,0.0,94,0.00,,,0.00,weatherlink.com 1.10,2013-05-21 12:12:00,
2013-05-21 08:27:00,67.6,65.0,29.92,ENE,65,0.0,1.0,90,0.00,,,0.00,weatherlink.com 1.10,2013-05-21 12:27:00,
2013-05-21 08:42:00,69.3,66.0,29.92,SE,128,0.0,2.0,88,0.00,,,0.00,weatherlink.com 1.10,2013-05-21 12:42:00,
2013-05-21 08:57:00,69.6,66.0,29.92,South,180,0.0,4.0,87,0.00,,,0.00,weatherlink.com 1.10,2013-05-21 12:57:00,
2013-05-21 09:12:00,71.1,67.0,29.92,SSE,150,1.0,4.0,86,0.00,,,0.00,weatherlink.com 1.10,2013-05-21 13:12:00,
2013-05-21 09:27:00,72.0,67.0,29.91,SSW,204,0.0,3.0,84,0.00,,,0.00,weatherlink.com 1.10,2013-05-21 13:27:00,
2013-05-21 09:42:00,73.5,67.0,29.91,SSE,167,0.0,3.0,81,0.00,,,0.00,weatherlink.com 1.10,2013-05-21 13:42:00,
2013-05-21 09:57:00,75.2,68.0,29.91,South,178,1.0,4.0,79,0.00,,,0.00,weatherlink.com 1.10,2013-05-21 13:57:00,
2013-05-21 10:13:00,77.9,70.0,29.91,South,184,0.0,2.0,76,0.00,,,0.00,weatherlink.com 1.10,2013-05-21 14:13:00,
2013-05-21 10:27:00,78.2,70.0,29.90,SW,215,1.0,3.0,75,0.00,,,0.00,weatherlink.com 1.10,2013-05-21 14:27:00,
2013-05-21 10:42:00,78.7,70.0,29.89,SSE,167,2.0,6.0,74,0.00,,,0.00,weatherlink.com 1.10,2013-05-21 14:42:00,
2013-05-21 10:58:00,80.0,70.0,29.89,South,181,0.0,5.0,72,0.00,,,0.00,weatherlink.com 1.10,2013-05-21 14:58:00,
2013-05-21 11:13:00,81.8,70.0,29.88,SW,217,0.0,4.0,67,0.00,,,0.00,weatherlink.com 1.10,2013-05-21 15:13:00,
2013-05-21 11:28:00,83.1,71.0,29.88,South,174,0.0,4.0,68,0.00,,,0.00,weatherlink.com 1.10,2013-05-21 15:28:00,
2013-05-21 11:43:00,84.9,71.0,29.87,ESE,113,0.0,5.0,64,0.00,,,0.00,weatherlink.com 1.10,2013-05-21 15:43:00,
2013-05-21 11:58:00,84.3,71.0,29.87,SSE,163,0.0,6.0,64,0.00,,,0.00,weatherlink.com 1.10,2013-05-21 15:58:00,
2013-05-21 12:14:00,84.9,72.0,29.86,SSE,147,0.0,6.0,65,0.00,,,0.00,weatherlink.com 1.10,2013-05-21 16:14:00,
2013-05-21 12:28:00,86.2,73.0,29.86,SSE,167,0.0,4.0,65,0.00,,,0.00,weatherlink.com 1.10,2013-05-21 16:28:00,
2013-05-21 12:44:00,86.2,70.0,29.86,SW,223,2.0,7.0,59,0.00,,,0.00,weatherlink.com 1.10,2013-05-21 16:44:00,
2013-05-21 12:59:00,85.2,73.0,29.85,SSE,155,1.0,4.0,66,0.00,,,0.00,weatherlink.com 1.10,2013-05-21 16:59:00,
2013-05-21 13:14:00,87.5,72.0,29.84,SW,221,0.0,3.0,60,0.00,,,0.00,weatherlink.com 1.10,2013-05-21 17:14:00,
2013-05-21 13:29:00,87.8,73.0,29.84,ESE,111,0.0,4.0,62,0.00,,,0.00,weatherlink.com 1.10,2013-05-21 17:29:00,
2013-05-21 13:44:00,87.3,72.0,29.83,SSW,209,3.0,6.0,60,0.00,,,0.00,weatherlink.com 1.10,2013-05-21 17:44:00,
2013-05-21 13:59:00,88.8,72.0,29.83,South,178,0.0,7.0,57,0.00,,,0.00,weatherlink.com 1.10,2013-05-21 17:59:00,
2013-05-21 14:14:00,86.9,70.0,29.82,South,171,1.0,8.0,58,0.00,,,0.00,weatherlink.com 1.10,2013-05-21 18:14:00,
2013-05-21 14:32:00,88.6,71.0,29.82,ESE,118,4.0,7.0,57,0.00,,,0.00,weatherlink.com 1.10,2013-05-21 18:32:00,
2013-05-21 14:45:00,87.2,72.0,29.81,SSW,202,3.0,10.0,60,0.00,,,0.00,weatherlink.com 1.10,2013-05-21 18:45:00,
2013-05-21 15:02:00,86.8,73.0,29.81,South,188,0.0,3.0,63,0.00,,,0.00,weatherlink.com 1.10,2013-05-21 19:02:00,
2013-05-21 15:15:00,88.5,73.0,29.80,ENE,78,0.0,7.0,60,0.00,,,0.00,weatherlink.com 1.10,2013-05-21 19:15:00,
2013-05-21 15:32:00,88.0,71.0,29.79,SW,215,2.0,7.0,57,0.00,,,0.00,weatherlink.com 1.10,2013-05-21 19:32:00,
2013-05-21 15:45:00,86.8,68.0,29.80,NNE,32,4.0,10.0,53,0.00,,,0.00,weatherlink.com 1.10,2013-05-21 19:45:00,
2013-05-21 16:02:00,83.4,69.0,29.79,NW,321,3.0,11.0,62,0.00,,,0.00,weatherlink.com 1.10,2013-05-21 20:02:00,
2013-05-21 16:15:00,80.6,69.0,29.79,ENE,74,1.0,5.0,67,0.00,,,0.00,weatherlink.com 1.10,2013-05-21 20:15:00,
2013-05-21 16:32:00,80.2,70.0,29.79,East,95,0.0,2.0,71,0.00,,,0.00,weatherlink.com 1.10,2013-05-21 20:32:00,
2013-05-21 16:46:00,81.2,70.0,29.79,NNW,335,0.0,6.0,68,0.00,,,0.00,weatherlink.com 1.10,2013-05-21 20:46:00,
2013-05-21 17:02:00,80.7,69.0,29.81,ENE,71,0.0,4.0,67,0.00,,,0.00,weatherlink.com 1.10,2013-05-21 21:02:00,
2013-05-21 17:16:00,81.8,69.0,29.81,ESE,111,0.0,2.0,66,0.00,,,0.00,weatherlink.com 1.10,2013-05-21 21:16:00,
2013-05-21 17:32:00,80.4,69.0,29.81,South,182,0.0,1.0,68,0.00,,,0.00,weatherlink.com 1.10,2013-05-21 21:32:00,
2013-05-21 17:46:00,80.0,67.0,29.80,SE,140,1.0,4.0,64,0.00,,,0.00,weatherlink.com 1.10,2013-05-21 21:46:00,
2013-05-21 18:02:00,78.6,67.0,29.81,SSW,202,0.0,2.0,68,0.00,,,0.00,weatherlink.com 1.10,2013-05-21 22:02:00,
2013-05-21 18:16:00,77.8,67.0,29.80,SE,146,0.0,3.0,69,0.00,,,0.00,weatherlink.com 1.10,2013-05-21 22:16:00,
2013-05-21 18:32:00,77.1,67.0,29.80,SE,146,0.0,0.0,70,0.00,,,0.00,weatherlink.com 1.10,2013-05-21 22:32:00,
2013-05-21 18:46:00,76.2,67.0,29.80,SE,146,0.0,0.0,73,0.00,,,0.00,weatherlink.com 1.10,2013-05-21 22:46:00,
2013-05-21 19:02:00,75.1,67.0,29.81,SE,146,0.0,0.0,75,0.00,,,0.00,weatherlink.com 1.10,2013-05-21 23:02:00,
2013-05-21 19:16:00,74.9,67.0,29.80,SE,146,0.0,0.0,77,0.00,,,0.00,weatherlink.com 1.10,2013-05-21 23:16:00,
2013-05-21 19:32:00,74.8,68.0,29.80,SE,146,0.0,0.0,78,0.00,,,0.00,weatherlink.com 1.10,2013-05-21 23:32:00,
2013-05-21 19:47:00,74.0,68.0,29.80,SE,146,0.0,0.0,80,0.00,,,0.00,weatherlink.com 1.10,2013-05-21 23:47:00,
2013-05-21 20:02:00,73.0,67.0,29.79,ENE,77,0.0,2.0,81,0.00,,,0.00,weatherlink.com 1.10,2013-05-22 00:02:00,
2013-05-21 20:17:00,72.3,67.0,29.78,ENE,77,0.0,0.0,83,0.00,,,0.00,weatherlink.com 1.10,2013-05-22 00:17:00,
2013-05-21 20:33:00,71.2,67.0,29.79,ENE,77,0.0,0.0,85,0.00,,,0.00,weatherlink.com 1.10,2013-05-22 00:33:00,
2013-05-21 20:47:00,70.3,66.0,29.79,ENE,77,0.0,1.0,86,0.00,,,0.00,weatherlink.com 1.10,2013-05-22 00:47:00,
2013-05-21 21:02:00,69.7,66.0,29.79,ENE,77,0.0,0.0,88,0.00,,,0.00,weatherlink.com 1.10,2013-05-22 01:02:00,
2013-05-21 21:17:00,68.9,66.0,29.77,ENE,77,0.0,0.0,89,0.00,,,0.00,weatherlink.com 1.10,2013-05-22 01:17:00,
2013-05-21 21:32:00,68.3,65.0,29.77,ENE,77,0.0,0.0,90,0.00,,,0.00,weatherlink.com 1.10,2013-05-22 01:32:00,
2013-05-21 21:47:00,68.0,65.0,29.77,ENE,77,0.0,0.0,90,0.00,,,0.00,weatherlink.com 1.10,2013-05-22 01:47:00,
2013-05-21 22:03:00,67.7,65.0,29.78,ENE,77,0.0,1.0,91,0.00,,,0.00,weatherlink.com 1.10,2013-05-22 02:03:00,
2013-05-21 22:18:00,68.0,66.0,29.79,NW,322,1.0,5.0,92,0.00,,,0.00,weatherlink.com 1.10,2013-05-22 02:18:00,
2013-05-21 22:33:00,68.9,66.0,29.80,NNW,333,0.0,7.0,90,0.00,,,0.00,weatherlink.com 1.10,2013-05-22 02:33:00,
2013-05-21 22:48:00,69.2,66.0,29.81,NE,34,0.0,4.0,89,0.00,,,0.00,weatherlink.com 1.10,2013-05-22 02:48:00,
2013-05-21 23:03:00,69.4,66.0,29.80,North,360,0.0,1.0,89,0.00,,,0.00,weatherlink.com 1.10,2013-05-22 03:03:00,
2013-05-21 23:18:00,69.2,66.0,29.81,North,349,0.0,0.0,89,0.00,,,0.00,weatherlink.com 1.10,2013-05-22 03:18:00,
2013-05-21 23:33:00,68.8,66.0,29.81,North,349,0.0,0.0,90,0.00,,,0.00,weatherlink.com 1.10,2013-05-22 03:33:00,
2013-05-21 23:48:00,68.3,66.0,29.82,North,349,0.0,0.0,91,0.00,,,0.00,weatherlink.com 1.10,2013-05-22 03:48:00,